Location: ?
(35.4214°N, 139.3011°E)
Time: 22:37:02
(UTC+00:00)

Cosmos 1703 - Pass Details

Date: 14 July 2020
Orbit: 525 x 539 km, 82.5° (Epoch: 10 August)

Event Time Altitude Azimuth Distance (km) Brightness Sun altitude
Rises 10:46:38 0° 196° (SSW) 2,642 6.6 -9.2°
Reaches altitude 10° 10:48:48 10° 201° (SSW) 1,758 5.7 -9.6°
Maximum altitude 10:52:34 53° 278° (W) 650 4.1 -10.2°
Drops below altitude 10° 10:56:23 10° 357° (N) 1,774 6.5 -10.8°
Sets 10:58:35 0° 2° (N) 2,669 7.4 -11.2°
